Buies Creek, NC

11:23 AM EST on December 08, 2016 (GMT -0500)
Harnett County

Weather History for KHRJ - February, 2014

Change the Weather History Date:

Friday, February 28, 2014

  Actual Average Record
Temperature  
Mean Temperature 39 °F -  
Max Temperature 49 °F 58 °F 82 °F (2011)
Min Temperature 30 °F 34 °F 23 °F (1963)
Degree Days  
Heating Degree Days 26    
Moisture  
Dew Point 14 °F    
Average Humidity 38    
Maximum Humidity 51    
Minimum Humidity 24    
Precipitation  
Precipitation 0.00 in - - ()
Sea Level Pressure  
Sea Level Pressure 30.22 in    
Wind  
Wind Speed 8 mph (NE)    
Max Wind Speed 16 mph    
Max Gust Speed 22 mph    
Visibility 10 miles    
Events      
Averages and records for this station are not official NWS values.
T = Trace of Precipitation, MM = Missing Value Source: NWS Daily Summary

Daily Weather History Graph

Daily Weather History Graph

Search for Another Location

Airport or City:

Trip Planner

Search our weather history database for the weather conditions in past years. The results will help you decide how hot, cold, wet, or windy it might be!

Date:

Astronomy

Feb. 28, 2014 Rise Set
Actual Time 6:45 AM EST 6:09 PM EST
Civil Twilight 6:20 AM EST 6:35 PM EST
Nautical Twilight 5:50 AM EST 7:04 PM EST
Astronomical Twilight 5:21 AM EST 7:33 PM EST
Moon 5:58 AM EST (2/28) 5:43 PM EST (2/28)
Length of Visible Light 12h 14m
Length of Day
11h 23m
Waning Crescent, 1% of the Moon is Illuminated
Feb 28
Waning Crescent
Mar 1
New
Mar 8
First Quarter
Mar 16
Full
Mar 23
Last Quarter

Hourly Weather History & Observations

Time (EST) Temp. Windchill Dew Point Humidity Pressure Visibility Wind Dir Wind Speed Gust Speed Precip Events Conditions
12:15 AM 38.7 °F 34.3 °F 10.4 °F 31% 30.01 in 10.0 mi NNE 5.8 mph - N/A   Clear
12:35 AM 38.5 °F 33.4 °F 9.5 °F 30% 30.02 in 10.0 mi NNE 6.9 mph - N/A   Clear
12:55 AM 37.9 °F 32.1 °F 9.1 °F 30% 30.03 in 10.0 mi North 8.1 mph - N/A   Clear
1:15 AM 37.4 °F 31.4 °F 8.8 °F 31% 30.04 in 10.0 mi North 8.1 mph - N/A   Clear
1:35 AM 36.7 °F 30.5 °F 8.6 °F 31% 30.05 in 10.0 mi North 8.1 mph - N/A   Clear
1:55 AM 36.5 °F 31.0 °F 8.8 °F 32% 30.07 in 10.0 mi North 6.9 mph - N/A   Clear
2:15 AM 35.6 °F 31.7 °F 9.1 °F 33% 30.08 in 10.0 mi North 4.6 mph - N/A   Clear
2:35 AM 34.9 °F 29.9 °F 9.7 °F 35% 30.08 in 10.0 mi North 5.8 mph - N/A   Clear
2:55 AM 34.9 °F 29.0 °F 9.0 °F 34% 30.08 in 10.0 mi North 6.9 mph - N/A   Clear
3:15 AM 34.5 °F 29.4 °F 8.8 °F 34% 30.09 in 10.0 mi NNE 5.8 mph - N/A   Clear
3:35 AM 33.8 °F 28.6 °F 9.1 °F 36% 30.09 in 10.0 mi North 5.8 mph - N/A   Clear
3:55 AM 33.3 °F 27.9 °F 9.7 °F 37% 30.11 in 10.0 mi NNE 5.8 mph - N/A   Clear
4:15 AM 32.9 °F 28.5 °F 10.8 °F 40% 30.12 in 10.0 mi NNE 4.6 mph - N/A   Clear
4:35 AM 32.2 °F 27.7 °F 10.9 °F 41% 30.13 in 10.0 mi NNE 4.6 mph - N/A   Clear
4:55 AM 32.0 °F 26.4 °F 11.3 °F 42% 30.14 in 10.0 mi NNE 5.8 mph - N/A   Clear
5:15 AM 32.0 °F 24.8 °F 11.5 °F 43% 30.16 in 10.0 mi NNE 8.1 mph - N/A   Clear
5:35 AM 31.6 °F 23.7 °F 12.0 °F 44% 30.17 in 10.0 mi NE 9.2 mph - N/A   Clear
5:55 AM 31.5 °F 23.5 °F 12.2 °F 45% 30.18 in 10.0 mi NE 9.2 mph - N/A   Clear
6:15 AM 30.9 °F 21.7 °F 12.6 °F 47% 30.18 in 10.0 mi NE 11.5 mph - N/A   Clear
6:35 AM 30.7 °F 21.4 °F 12.9 °F 48% 30.19 in 10.0 mi NNE 11.5 mph 17.3 mph N/A   Clear
6:55 AM 30.2 °F 21.3 °F 13.6 °F 50% 30.21 in 10.0 mi NE 10.4 mph - N/A   Clear
7:15 AM 30.7 °F 21.4 °F 14.0 °F 50% 30.22 in 10.0 mi NE 11.5 mph - N/A   Clear
7:35 AM 31.5 °F 24.9 °F 14.7 °F 50% 30.23 in 10.0 mi NE 6.9 mph - N/A   Clear
7:55 AM 32.0 °F 21.2 °F 15.6 °F 51% 30.24 in 10.0 mi NE 16.1 mph 21.9 mph N/A   Clear
8:15 AM 32.2 °F 23.2 °F 15.8 °F 51% 30.25 in 10.0 mi ENE 11.5 mph - N/A   Clear
8:35 AM 33.1 °F 23.0 °F 16.0 °F 50% 30.27 in 10.0 mi NE 15.0 mph 18.4 mph N/A   Clear
8:55 AM 33.6 °F 23.7 °F 16.0 °F 48% 30.27 in 10.0 mi ENE 15.0 mph - N/A   Clear
9:15 AM 34.9 °F 25.7 °F 16.9 °F 48% 30.28 in 10.0 mi NE 13.8 mph 18.4 mph N/A   Clear
9:35 AM 34.9 °F 25.7 °F 16.2 °F 46% 30.28 in 10.0 mi ENE 13.8 mph 21.9 mph N/A   Clear
9:55 AM 36.0 °F 27.5 °F 17.2 °F 47% 30.29 in 10.0 mi NE 12.7 mph 17.3 mph N/A   Clear
10:15 AM 37.2 °F 31.2 °F 17.1 °F 44% 30.30 in 10.0 mi NE 8.1 mph - N/A   Clear
10:35 AM 38.3 °F 31.9 °F 17.8 °F 44% 30.30 in 10.0 mi NNE 9.2 mph - N/A   Clear
10:55 AM 39.6 °F 34.0 °F 17.6 °F 41% 30.31 in 10.0 mi NE 8.1 mph 16.1 mph N/A   Clear
11:15 AM 39.9 °F 33.4 °F 15.4 °F 37% 30.32 in 10.0 mi ENE 10.4 mph 16.1 mph N/A   Clear
11:40 AM 41.2 °F 36.6 °F 15.4 °F 35% 30.32 in 10.0 mi NNE 6.9 mph 16.1 mph N/A   Clear
11:55 AM 42.3 °F 36.3 °F 15.6 °F 34% 30.31 in 10.0 mi ENE 10.4 mph - N/A   Clear
12:15 PM 42.8 °F 38.6 °F 17.1 °F 36% 30.30 in 10.0 mi NNE 6.9 mph - N/A   Clear
12:35 PM 44.1 °F 39.0 °F 15.6 °F 32% 30.30 in 10.0 mi NE 9.2 mph 16.1 mph N/A   Clear
12:55 PM 44.8 °F 39.0 °F 14.5 °F 30% 30.28 in 10.0 mi NE 11.5 mph 17.3 mph N/A   Clear
1:15 PM 45.5 °F 43.2 °F 15.4 °F 30% 30.27 in 10.0 mi ENE 4.6 mph 16.1 mph N/A   Clear
1:35 PM 45.9 °F 40.4 °F 14.7 °F 29% 30.26 in 10.0 mi NE 11.5 mph 16.1 mph N/A   Clear
1:55 PM 46.8 °F - 16.5 °F 30% 30.25 in 10.0 mi NNE 10.4 mph - N/A   Clear
2:15 PM 47.8 °F - 15.3 °F 27% 30.25 in 10.0 mi NE 9.2 mph 16.1 mph N/A   Clear
2:35 PM 47.3 °F - 16.2 °F 29% 30.24 in 10.0 mi NNE 6.9 mph - N/A   Clear
2:55 PM 48.0 °F - 12.6 °F 24% 30.24 in 10.0 mi ENE 8.1 mph - N/A   Clear
3:15 PM 48.2 °F - 14.0 °F 25% 30.24 in 10.0 mi ENE 9.2 mph - N/A   Clear
3:35 PM 48.7 °F - 15.1 °F 26% 30.24 in 10.0 mi East 9.2 mph - N/A   Clear
3:55 PM 48.7 °F - 14.5 °F 26% 30.24 in 10.0 mi ENE 5.8 mph 17.3 mph N/A   Clear
4:20 PM 48.4 °F - 14.0 °F 25% 30.24 in 10.0 mi ENE 8.1 mph - N/A   Clear
4:35 PM 47.8 °F - 14.4 °F 26% 30.24 in 10.0 mi East 11.5 mph - N/A   Clear
4:55 PM 47.1 °F - 14.5 °F 27% 30.25 in 10.0 mi ENE 9.2 mph - N/A   Clear
5:15 PM 46.2 °F 42.2 °F 14.2 °F 28% 30.25 in 10.0 mi ENE 8.1 mph - N/A   Scattered Clouds
5:35 PM 45.1 °F 40.8 °F 14.2 °F 29% 30.26 in 10.0 mi East 8.1 mph - N/A   Mostly Cloudy
5:55 PM 44.6 °F 40.7 °F 15.1 °F 30% 30.26 in 10.0 mi ENE 6.9 mph - N/A   Mostly Cloudy
6:15 PM 43.2 °F 38.4 °F 15.6 °F 33% 30.27 in 10.0 mi ENE 8.1 mph - N/A   Scattered Clouds
6:35 PM 42.3 °F 39.4 °F 16.3 °F 35% 30.27 in 10.0 mi East 4.6 mph - N/A   Scattered Clouds
6:55 PM 41.9 °F 36.9 °F 16.3 °F 36% 30.27 in 10.0 mi ENE 8.1 mph - N/A   Scattered Clouds
7:15 PM 41.0 °F 38.0 °F 17.4 °F 39% 30.28 in 10.0 mi ENE 4.6 mph - N/A   Clear
7:35 PM 40.6 °F 37.5 °F 17.4 °F 39% 30.28 in 10.0 mi ENE 4.6 mph - N/A   Mostly Cloudy
7:55 PM 40.5 °F 36.5 °F 17.4 °F 39% 30.28 in 10.0 mi ENE 5.8 mph - N/A   Mostly Cloudy
8:15 PM 40.3 °F 34.9 °F 17.8 °F 40% 30.27 in 10.0 mi NE 8.1 mph - N/A   Overcast
8:35 PM 39.6 °F 34.7 °F 17.4 °F 41% 30.27 in 10.0 mi NE 6.9 mph - N/A   Mostly Cloudy
8:55 PM 39.2 °F 35.0 °F 17.1 °F 41% 30.28 in 10.0 mi ENE 5.8 mph - N/A   Scattered Clouds
9:15 PM 39.2 °F 34.2 °F 16.7 °F 40% 30.29 in 10.0 mi ENE 6.9 mph - N/A   Mostly Cloudy
9:35 PM 38.7 °F 35.2 °F 16.9 °F 41% 30.30 in 10.0 mi ENE 4.6 mph - N/A   Scattered Clouds
9:55 PM 39.0 °F 34.8 °F 17.8 °F 42% 30.30 in 10.0 mi ENE 5.8 mph - N/A   Mostly Cloudy
10:15 PM 38.5 °F 32.1 °F 17.8 °F 43% 30.29 in 10.0 mi ENE 9.2 mph - N/A   Overcast
10:35 PM 37.6 °F 31.0 °F 17.4 °F 44% 30.30 in 10.0 mi ENE 9.2 mph - N/A   Mostly Cloudy
10:55 PM 37.4 °F 30.8 °F 17.6 °F 45% 30.30 in 10.0 mi East 9.2 mph - N/A   Mostly Cloudy
11:15 PM 37.0 °F 29.8 °F 17.2 °F 45% 30.30 in 10.0 mi East 10.4 mph - N/A   Overcast
11:35 PM 36.5 °F 29.7 °F 17.4 °F 46% 30.30 in 10.0 mi East 9.2 mph - N/A   Overcast
11:55 PM 35.8 °F 28.8 °F 18.0 °F 48% 30.30 in 10.0 mi East 9.2 mph - N/A   Overcast